TimeEST,TemperatureF,Dew PointF,Humidity,Sea Level PressureIn,VisibilityMPH,Wind Direction,Wind SpeedMPH,Gust SpeedMPH,PrecipitationIn,Events,Conditions,WindDirDegrees,DateUTC
12:14 AM,32.9,27.3,80,30.35,10.0,South,16.1,21.9,N/A,,Overcast,170,2013-11-30 05:14:00
12:35 AM,33.3,28.2,82,30.33,10.0,South,15.0,25.3,N/A,,Overcast,180,2013-11-30 05:35:00
12:55 AM,33.1,27.9,81,30.33,10.0,South,18.4,25.3,N/A,,Overcast,170,2013-11-30 05:55:00
1:14 AM,33.1,27.9,81,30.32,10.0,South,17.3,27.6,N/A,,Overcast,180,2013-11-30 06:14:00
1:35 AM,33.3,28.2,82,30.32,10.0,South,13.8,27.6,N/A,,Overcast,180,2013-11-30 06:35:00
1:54 AM,33.3,28.4,82,30.31,10.0,South,18.4,26.5,N/A,,Overcast,170,2013-11-30 06:54:00
2:15 AM,33.4,28.4,82,30.30,10.0,South,17.3,25.3,N/A,,Overcast,180,2013-11-30 07:15:00
2:34 AM,33.4,28.4,82,30.29,10.0,South,16.1,25.3,N/A,,Overcast,170,2013-11-30 07:34:00
2:55 AM,33.8,29.1,83,30.28,10.0,South,13.8,24.2,N/A,,Overcast,170,2013-11-30 07:55:00
3:15 AM,34.7,30.2,84,30.27,10.0,South,18.4,26.5,N/A,,Overcast,190,2013-11-30 08:15:00
3:35 AM,34.9,30.2,83,30.26,10.0,South,17.3,24.2,N/A,,Overcast,190,2013-11-30 08:35:00
3:55 AM,34.9,30.7,85,30.24,10.0,South,13.8,23.0,N/A,,Overcast,190,2013-11-30 08:55:00
4:14 AM,34.9,31.3,87,30.23,10.0,SSW,13.8,23.0,N/A,,Light Drizzle,210,2013-11-30 09:14:00
4:35 AM,34.3,30.4,85,30.22,10.0,SSW,6.9,-,N/A,,Overcast,210,2013-11-30 09:35:00
4:55 AM,34.5,29.1,81,30.20,10.0,SSW,13.8,19.6,N/A,,Overcast,210,2013-11-30 09:55:00
5:14 AM,35.2,27.5,73,30.19,10.0,SSW,17.3,25.3,N/A,,Overcast,210,2013-11-30 10:14:00
5:35 AM,35.2,28.2,76,30.18,10.0,SSW,13.8,25.3,N/A,,Overcast,210,2013-11-30 10:35:00
5:55 AM,35.6,28.4,75,30.17,10.0,SSW,16.1,24.2,N/A,,Overcast,210,2013-11-30 10:55:00
6:14 AM,36.0,28.4,74,30.16,10.0,SW,17.3,24.2,N/A,,Overcast,220,2013-11-30 11:14:00
6:35 AM,35.8,28.4,75,30.15,10.0,SW,10.4,21.9,N/A,,Overcast,230,2013-11-30 11:35:00
6:55 AM,34.9,28.2,77,30.15,10.0,SW,8.1,-,N/A,,Overcast,230,2013-11-30 11:55:00
7:14 AM,34.3,28.0,78,30.14,10.0,SW,8.1,-,N/A,,Overcast,230,2013-11-30 12:14:00
7:35 AM,34.7,27.3,74,30.14,10.0,SW,8.1,17.3,N/A,,Overcast,230,2013-11-30 12:35:00
7:54 AM,34.2,27.1,75,30.14,10.0,SW,8.1,-,N/A,,Overcast,230,2013-11-30 12:54:00
8:15 AM,34.2,26.6,74,30.13,10.0,SW,8.1,-,N/A,,Overcast,230,2013-11-30 13:15:00
8:35 AM,34.2,26.6,74,30.12,10.0,SW,8.1,-,N/A,,Overcast,220,2013-11-30 13:35:00
8:54 AM,34.2,26.8,74,30.11,10.0,SW,9.2,-,N/A,,Overcast,230,2013-11-30 13:54:00
9:15 AM,34.2,26.6,74,30.11,10.0,SW,8.1,-,N/A,,Overcast,230,2013-11-30 14:15:00
9:35 AM,34.2,26.8,74,30.10,10.0,SW,8.1,-,N/A,,Overcast,230,2013-11-30 14:35:00
9:54 AM,34.2,27.0,75,30.10,10.0,SW,8.1,-,N/A,,Overcast,230,2013-11-30 14:54:00
10:15 AM,34.2,26.6,74,30.10,10.0,WSW,4.6,-,N/A,,Overcast,240,2013-11-30 15:15:00
10:34 AM,34.2,26.6,74,30.10,10.0,WSW,4.6,-,N/A,,Overcast,240,2013-11-30 15:34:00
10:54 AM,34.3,26.6,73,30.09,7.0,WSW,5.8,-,N/A,Snow,Light Snow,240,2013-11-30 15:54:00
11:15 AM,33.4,27.9,80,30.08,4.0,SW,5.8,-,N/A,Snow,Light Snow,230,2013-11-30 16:15:00
11:34 AM,33.1,28.4,83,30.08,4.0,SW,6.9,-,N/A,Snow,Light Snow,220,2013-11-30 16:34:00
11:55 AM,33.3,28.8,84,30.07,3.0,SW,4.6,-,N/A,Snow,Light Snow,230,2013-11-30 16:55:00
12:15 PM,33.3,28.8,84,30.06,4.0,WSW,4.6,-,N/A,Snow,Light Snow,240,2013-11-30 17:15:00
12:34 PM,33.3,29.1,85,30.05,2.5,WSW,4.6,-,N/A,Snow,Light Snow,240,2013-11-30 17:34:00
12:55 PM,32.5,30.2,91,30.04,1.5,Calm,Calm,-,N/A,Snow,Light Snow,0,2013-11-30 17:55:00
1:15 PM,32.5,30.9,94,30.03,1.5,Calm,Calm,-,N/A,Snow,Light Snow,0,2013-11-30 18:15:00
1:34 PM,32.5,31.1,94,30.03,1.5,WSW,4.6,-,N/A,Snow,Light Snow,250,2013-11-30 18:34:00
1:55 PM,32.9,31.1,93,30.02,1.8,West,4.6,-,N/A,Snow,Light Snow,270,2013-11-30 18:55:00
2:14 PM,32.9,30.9,92,30.02,2.0,West,4.6,-,N/A,Snow,Light Snow,270,2013-11-30 19:14:00
2:34 PM,32.5,30.2,91,30.01,2.5,West,5.8,-,N/A,Snow,Light Snow,270,2013-11-30 19:34:00
2:55 PM,32.9,30.2,90,30.01,4.0,West,4.6,-,N/A,Snow,Light Snow,280,2013-11-30 19:55:00
3:14 PM,32.5,28.6,85,30.01,5.0,West,4.6,-,N/A,,Haze,270,2013-11-30 20:14:00
3:35 PM,32.4,28.8,87,30.01,7.0,WNW,5.8,-,N/A,,Overcast,290,2013-11-30 20:35:00
3:54 PM,32.2,28.4,86,30.01,7.0,WNW,3.5,-,N/A,,Overcast,290,2013-11-30 20:54:00
4:15 PM,32.0,28.4,87,30.01,7.0,NW,3.5,-,N/A,,Overcast,310,2013-11-30 21:15:00
4:35 PM,31.8,27.9,85,30.01,7.0,NW,3.5,-,N/A,,Mostly Cloudy,320,2013-11-30 21:35:00
4:54 PM,30.6,27.3,88,30.02,7.0,WNW,4.6,-,N/A,,Clear,300,2013-11-30 21:54:00
5:15 PM,29.8,27.3,90,30.02,5.0,Calm,Calm,-,N/A,,Scattered Clouds,0,2013-11-30 22:15:00
5:35 PM,28.9,27.1,93,30.03,5.0,NW,4.6,-,N/A,,Clear,310,2013-11-30 22:35:00
5:54 PM,29.8,27.5,91,30.03,7.0,NW,4.6,-,N/A,,Mostly Cloudy,320,2013-11-30 22:54:00
6:15 PM,30.2,27.7,90,30.04,7.0,NNW,3.5,-,N/A,,Overcast,330,2013-11-30 23:15:00
6:35 PM,30.2,28.0,92,30.04,5.0,NNW,4.6,-,N/A,,Overcast,330,2013-11-30 23:35:00
6:54 PM,30.2,28.2,92,30.04,5.0,NNW,3.5,-,N/A,,Overcast,330,2013-11-30 23:54:00
7:15 PM,30.2,28.2,92,30.05,5.0,NNW,3.5,-,N/A,,Overcast,330,2013-12-01 00:15:00
7:34 PM,30.2,28.2,92,30.05,5.0,Calm,Calm,-,N/A,,Overcast,0,2013-12-01 00:34:00
7:55 PM,30.2,28.4,93,30.05,5.0,Calm,Calm,-,N/A,,Overcast,0,2013-12-01 00:55:00
8:15 PM,30.2,28.2,92,30.05,5.0,Calm,Calm,-,N/A,,Overcast,0,2013-12-01 01:15:00
8:34 PM,29.8,28.2,94,30.05,5.0,Calm,Calm,-,N/A,,Overcast,0,2013-12-01 01:34:00
8:55 PM,30.2,28.0,92,30.05,5.0,Calm,Calm,-,N/A,,Overcast,0,2013-12-01 01:55:00
9:15 PM,30.0,27.7,91,30.05,5.0,Calm,Calm,-,N/A,,Overcast,0,2013-12-01 02:15:00
9:34 PM,30.6,27.9,90,30.05,7.0,Calm,Calm,-,N/A,,Overcast,0,2013-12-01 02:34:00
9:55 PM,30.2,27.9,91,30.05,7.0,NW,3.5,-,N/A,,Overcast,310,2013-12-01 02:55:00
10:15 PM,30.6,27.5,88,30.05,7.0,NW,4.6,-,N/A,,Overcast,310,2013-12-01 03:15:00
10:34 PM,30.6,27.5,88,30.06,7.0,NW,3.5,-,N/A,,Overcast,320,2013-12-01 03:34:00
10:55 PM,30.2,27.3,89,30.05,7.0,Calm,Calm,-,N/A,,Overcast,0,2013-12-01 03:55:00
11:14 PM,30.6,27.1,87,30.05,7.0,NW,4.6,-,N/A,,Overcast,310,2013-12-01 04:14:00
11:35 PM,30.6,27.1,87,30.05,7.0,NW,4.6,-,N/A,,Overcast,310,2013-12-01 04:35:00
11:55 PM,30.6,27.1,87,30.06,7.0,WNW,4.6,-,N/A,,Overcast,300,2013-12-01 04:55:00